COSMOS 249 DEB, 3794

Orbit data source: Space-Track

COSMOS 249 DEB, 3794 is space debris in LEO originally from a launch on Sun, 20 Oct 1968 UTC launched from the Tyuratam Missile And Space Complex (TTMTR). Debris objects in space refer to the collection of defunct objects orbiting the Earth. Examples of debris include non-operational satellites, rocket bodies, and fragments generated from explosions, collisions, or faulty payload assembly.

Loading next visibility...
Identifier
3794, 1968-091BB
Orbit
LEO
Country
Flag of CISCIS
Related business
Manufacturer
Unknown
Mission
Spacecraft
Bus & Motor
Unknown
Mass
Unknown
Launch date (UTC)
1968-10-20 (57 years ago)
Launch vehicle
Unknown
Launch site
Tyuratam Missile And Space Complex (TTMTR)
Object type
Payload
Rocket body
Debris
Shape & HBR
Unknown shape, 0.1 m
Radar Cross Section
Small (<0.1 m²)

Expand to show TLE details & history
Last TLE update: 22 hours ago

TLE from 22 hours ago
0 COSMOS 249 DEB
1 03794U 68091BB  26035.12295959  .00001409  00000-0  12956-2 0  9994
2 03794  62.2699 288.5221 0569875 218.6975 137.1889 13.30187234692371
Epoch: 2026-02-04T02:57Z
TLE epoch observation values (Epoch: 2026-02-04T02:57:03.708Z)
Latitude
-0.00001°
Longitude
109.96258°
Altitude
1,472.889 km
Speed
6.972 km/s
True Right ascension
19h 14m 05s
True Declination
0° 00' 00"
Sunlit
Object was in daylight at epoch
Visualization orbit readout
Latitude
Unknown
Longitude
Unknown
Altitude
Unknown
Speed
Unknown
Apparent Right ascension
Unknown
Apparent Declination
Unknown
Sunlit
N/A
Visualization observer readout
Local Sidereal Time
02:52:15
Azimuth
Unknown
Elevation
Unknown
Doppler factor
Unknown
Orbital elements
Apogee altitude
1,573.758 km
Perigee altitude
716.305 km
Semi-major axis
7,523.168 km
Eccentricity
0.05699
Inclination
62.2699°
RAAN
288.5221°
Arg. of periapsis
218.6975°
True anomaly
141.4022°
Mean anomaly
137.1889°
Eccentric anomaly
139.31735°
Mean motion
3.32615 °/min
Orbital period
108.23 mins
BSTAR
0.0012956
Loading maneuver chart data...
Computing Atmospheric mass density...

Documentation

Showing up to 5 results
|